| time (UTC) | temp F | wind direction | speed MPH | gust MPH | rain 1hr in | rain 24hr in | rain mn in | humidity % | barometer mb |
| 20260901191541 | 57 | 86 | 1.0 | 9.0 | 0.01 | 0.18 | 0.01 | 82 | 1028.6 |
| 20260901190038 | 57 | 0 | 0.0 | 4.0 | 0.01 | 0.18 | 0.01 | 78 | 1029.0 |
| 20260901184534 | 59 | 137 | 1.0 | 5.0 | 0.00 | 0.17 | 0.00 | 77 | 1029.2 |
| 20260901183056 | 0 | 0.0 | 0.0 | 0.00 | 0.17 | 0.00 | 1029.1 | ||
| 20260901181535 | 63 | 0 | 0.0 | 6.0 | 0.00 | 0.17 | 0.00 | 65 | 1028.8 |
| 20260901180034 | 64 | 190 | 4.0 | 8.0 | 0.00 | 0.17 | 0.00 | 68 | 1028.7 |
| 20260901174533 | 61 | 0 | 0.0 | 2.0 | 0.00 | 0.17 | 0.00 | 79 | 1028.9 |
| 20260901173046 | 60 | 297 | 2.0 | 9.0 | 0.00 | 0.17 | 0.00 | 80 | 1029.0 |
| 20260901171547 | 61 | 0 | 0.0 | 5.0 | 0.00 | 0.17 | 0.00 | 76 | 1028.8 |
| 20260901170047 | 61 | 0 | 0.0 | 3.0 | 0.00 | 0.17 | 0.00 | 74 | 1028.7 |
| 20260901164535 | 60 | 0 | 0.0 | 0.0 | 0.00 | 0.17 | 0.00 | 79 | 1028.5 |
| 20260901163046 | 59 | 0 | 0.0 | 1.0 | 0.00 | 0.17 | 0.00 | 82 | 1028.7 |
| 20260901161546 | 60 | 0 | 0.0 | 3.0 | 0.00 | 0.17 | 0.00 | 80 | 1028.6 |
| 20260901160039 | 60 | 0 | 0.0 | 0.0 | 0.00 | 0.17 | 0.00 | 81 | 1028.6 |
| 20260901154536 | 58 | 0.0 | 0.0 | 0.00 | 0.17 | 0.00 | 85 | 1028.6 | |
| 20260901153038 | 57 | 0 | 0.0 | 0.0 | 0.00 | 0.17 | 0.00 | 88 | 1028.7 |
| 20260901151546 | 55 | 0 | 0.0 | 2.0 | 0.00 | 0.17 | 0.00 | 89 | 1028.6 |
| 20260901150043 | 55 | 0.0 | 0.0 | 0.00 | 0.17 | 0.00 | 91 | 1028.5 | |
| 20260901144536 | 55 | 0 | 0.0 | 0.0 | 0.00 | 0.17 | 0.00 | 92 | 1028.6 |
| 20260901143039 | 54 | 0 | 0.0 | 0.0 | 0.00 | 0.17 | 0.00 | 93 | 1028.7 |
| 20260901141543 | 53 | 0 | 0.0 | 0.0 | 0.00 | 0.17 | 0.00 | 94 | 1028.6 |
| 20260901140036 | 52 | 0 | 0.0 | 0.0 | 0.00 | 0.17 | 0.00 | 94 | 1028.7 |
| 20260901134532 | 49 | 2.0 | 5.0 | 0.00 | 0.17 | 0.00 | 94 | 1028.8 | |
| 20260901133043 | 48 | 68 | 0.0 | 6.0 | 0.00 | 0.17 | 0.00 | 94 | 1028.5 |
| 20260901131540 | 46 | 61 | 2.0 | 6.0 | 0.00 | 0.17 | 0.00 | 94 | 1028.6 |
| 20260901130032 | 46 | 59 | 2.0 | 5.0 | 0.00 | 0.17 | 0.00 | 94 | 1028.4 |
| 20260901124534 | 0 | 0.0 | 0.0 | 0.00 | 0.17 | 0.00 | 1028.3 | ||
| 20260901123040 | 47 | 0 | 0.0 | 0.0 | 0.00 | 0.17 | 0.00 | 94 | 1028.2 |
| 20260901121539 | 47 | 0 | 0.0 | 1.0 | 0.00 | 0.17 | 0.00 | 94 | 1028.0 |
| 20260901120034 | 47 | 0 | 1.0 | 3.0 | 0.00 | 0.17 | 0.00 | 94 | 1027.7 |
| 20260901114533 | 47 | 71 | 2.0 | 5.0 | 0.00 | 0.17 | 0.00 | 94 | 1027.6 |
| 20260901113036 | 48 | 73 | 3.0 | 5.0 | 0.00 | 0.17 | 0.00 | 94 | 1027.4 |
| 20260901111534 | 47 | 57 | 3.0 | 5.0 | 0.00 | 0.17 | 0.00 | 94 | 1027.3 |
| 20260901110034 | 48 | 71 | 2.0 | 4.0 | 0.00 | 0.17 | 0.00 | 94 | 1027.2 |
| 20260901104534 | 48 | 71 | 1.0 | 3.0 | 0.00 | 0.17 | 0.00 | 94 | 1027.4 |
| 20260901103040 | 48 | 71 | 1.0 | 4.0 | 0.00 | 0.17 | 0.00 | 94 | 1027.3 |
| 20260901101541 | 48 | 71 | 2.0 | 4.0 | 0.00 | 0.17 | 0.00 | 94 | 1027.2 |
| 20260901100045 | 49 | 0 | 0.0 | 0.0 | 0.00 | 0.17 | 0.00 | 94 | 1027.2 |
| 20260901094540 | 49 | 0 | 0.0 | 2.0 | 0.00 | 0.17 | 0.00 | 94 | 1027.5 |
| 20260901093039 | 49 | 77 | 0.0 | 4.0 | 0.00 | 0.17 | 0.00 | 94 | 1027.2 |
| 20260901091541 | 49 | 77 | 2.0 | 4.0 | 0.00 | 0.17 | 0.00 | 94 | 1027.2 |
| 20260901090038 | 49 | 85 | 2.0 | 4.0 | 0.00 | 0.17 | 0.00 | 94 | 1027.3 |
| 20260901084545 | 49 | 67 | 0.0 | 3.0 | 0.00 | 0.18 | 0.00 | 94 | 1027.4 |
| 20260901083041 | 50 | 0 | 0.0 | 0.0 | 0.00 | 0.18 | 0.00 | 94 | 1027.5 |
| 20260901081540 | 50 | 0.0 | 0.0 | 0.00 | 0.18 | 0.00 | 94 | 1027.6 | |
| 20260901080058 | 51 | 0 | 0.0 | 0.0 | 0.00 | 0.18 | 0.00 | 94 | 1027.9 |
| 20260901074543 | 51 | 0 | 0.0 | 0.0 | 0.00 | 0.18 | 0.00 | 94 | 1028.0 |
| 20260901073134 | 0 | 0.0 | 0.0 | 0.00 | 0.18 | 0.00 | 1028.0 | ||
| 20260901071538 | 51 | 0 | 0.0 | 0.0 | 0.00 | 0.18 | 0.00 | 94 | 1028.1 |
| 20260901070036 | 51 | 0.0 | 0.0 | 0.00 | 0.18 | 0.00 | 94 | 1028.2 | |
| 20260901064535 | 51 | 0 | 0.0 | 5.0 | 0.00 | 0.18 | 0.00 | 93 | 1028.1 |
| 20260901063035 | 51 | 0 | 0.0 | 0.0 | 0.00 | 0.18 | 0.00 | 94 | 1028.2 |
| 20260901061717 | 52 | 0 | 0.0 | 2.0 | 0.00 | 0.18 | 0.00 | 93 | 1028.4 |
| 20260901060040 | 52 | 165 | 3.0 | 5.0 | 0.00 | 0.18 | 0.00 | 93 | 1028.3 |
| 20260901054538 | 52 | 136 | 2.0 | 5.0 | 0.00 | 0.18 | 0.18 | 93 | 1028.2 |
| 20260901053045 | 52 | 115 | 2.0 | 6.0 | 0.00 | 0.18 | 0.18 | 94 | 1028.1 |
| 20260901051535 | 52 | 118 | 3.0 | 7.0 | 0.00 | 0.18 | 0.18 | 94 | 1028.0 |
| 20260901050038 | 52 | 78 | 2.0 | 6.0 | 0.00 | 0.18 | 0.18 | 94 | 1027.9 |
| 20260901044540 | 52 | 69 | 1.0 | 3.0 | 0.00 | 0.18 | 0.18 | 93 | 1028.1 |
| 20260901043036 | 52 | 57 | 2.0 | 4.0 | 0.00 | 0.18 | 0.18 | 93 | 1028.2 |
| 20260901041546 | 52 | 55 | 2.0 | 5.0 | 0.00 | 0.18 | 0.18 | 93 | 1028.5 |
| 20260901040042 | 0 | 2.0 | 3.0 | 0.04 | 0.18 | 0.18 | 93 | 1028.4 | |
| 20260901034534 | 0 | 3.0 | 0.0 | 0.04 | 0.25 | 0.18 | 1028.4 | ||
| 20260901033040 | 54 | 0.0 | 0.0 | 0.04 | 0.25 | 0.18 | 93 | 1028.3 | |
| 20260901031533 | 54 | 0 | 0.0 | 0.0 | 0.04 | 0.25 | 0.18 | 93 | 1028.3 |
| 20260901030035 | 54 | 0.0 | 0.0 | 0.00 | 0.21 | 0.14 | 93 | 1028.2 | |
| 20260901024534 | 0 | 0.0 | 0.0 | 0.00 | 0.45 | 0.14 | 1028.0 | ||
| 20260901023033 | 54 | 0 | 0.0 | 3.0 | 0.00 | 0.45 | 0.14 | 92 | 1027.7 |
| 20260901021540 | 55 | 0 | 0.0 | 1.0 | 0.00 | 0.45 | 0.14 | 92 | 1027.7 |
| 20260901020037 | 0 | 0.0 | 0.0 | 0.00 | 0.45 | 0.14 | 1027.7 | ||
| 20260901014535 | 0 | 0.0 | 0.0 | 0.00 | 0.50 | 0.14 | 1027.8 | ||
| 20260901013033 | 55 | 0.0 | 0.0 | 0.00 | 0.50 | 0.14 | 90 | 1027.9 | |
| 20260901011539 | 55 | 0 | 0.0 | 0.0 | 0.00 | 0.50 | 0.14 | 90 | 1028.0 |
| 20260901010050 | 55 | 0 | 0.0 | 0.0 | 0.00 | 0.50 | 0.14 | 90 | 1028.1 |
| 20260901004538 | 55 | 0 | 0.0 | 0.0 | 0.00 | 0.50 | 0.14 | 90 | 1028.2 |
| 20260901003038 | 56 | 0 | 0.0 | 0.0 | 0.00 | 0.50 | 0.14 | 91 | 1028.3 |
| 20260901001539 | 56 | 0 | 0.0 | 0.0 | 0.00 | 0.50 | 0.14 | 91 | 1028.4 |
| 20260901000035 | 0 | 0 | 0.0 | 0.0 | 0.00 | 0.50 | 0.14 | 92 | 1028.4 |
| 20260831234535 | 56 | 0.0 | 1.0 | 0.00 | 0.50 | 0.14 | 92 | 1028.4 | |
| 20260831233043 | 55 | 0 | 0.0 | 1.0 | 0.00 | 0.50 | 0.14 | 92 | 1028.4 |
| 20260831231537 | 55 | 342 | 2.0 | 2.0 | 0.01 | 0.50 | 0.14 | 92 | 1028.6 |
| 20260831230037 | 55 | 0 | 0.0 | 3.0 | 0.04 | 0.50 | 0.14 | 92 | 1028.5 |
| 20260831224535 | 54 | 14 | 0.0 | 1.0 | 0.07 | 0.50 | 0.14 | 1028.7 | |
| 20260831223033 | 54 | 1.0 | 4.0 | 0.10 | 0.50 | 0.14 | 90 | 1029.0 | |
| 20260831221537 | 53 | 0 | 0.0 | 0.0 | 0.12 | 0.49 | 0.13 | 90 | 1029.1 |
| 20260831220035 | 53 | 0 | 0.0 | 4.0 | 0.09 | 0.46 | 0.10 | 88 | 1029.4 |
| 20260831214539 | 54 | 195 | 5.0 | 10.0 | 0.06 | 0.43 | 0.07 | 85 | 1029.6 |
| 20260831213039 | 56 | 182 | 5.0 | 10.0 | 0.02 | 0.39 | 0.03 | 81 | 1029.4 |
| 20260831211537 | 0 | 203 | 7.0 | 0.0 | 0.00 | 0.37 | 0.01 | 1029.3 | |
| 20260831210035 | 0 | 0.0 | 0.0 | 0.00 | 0.37 | 0.01 | 1029.2 | ||
| 20260831204535 | 0 | 0.0 | 0.0 | 0.00 | 0.37 | 0.01 | 1028.7 | ||
| 20260831203032 | 0 | 13.0 | 0.0 | 0.00 | 0.37 | 0.01 | 1028.6 | ||
| 20260831201536 | 68 | 265 | 10.0 | 18.0 | 0.00 | 0.37 | 0.01 | 55 | 1028.2 |
| 20260831200037 | 70 | 260 | 6.0 | 15.0 | 0.00 | 0.37 | 0.01 | 53 | 1028.3 |
| 20260831194550 | 70 | 265 | 6.0 | 13.0 | 0.00 | 0.52 | 0.01 | 54 | 1028.4 |
| 20260831193038 | 69 | 4.0 | 9.0 | 0.00 | 0.52 | 0.01 | 56 | 1028.5 |